World > North America > United States > New York > Stockbridge

Hourly Stockbridge, NY Regional Weather

Feedback E-mail the Weather

Quick WX

Stockbridge, NY Weather Maps

°F °C°F °C
Stockbridge Weather Map
UTC Time: 8/12/2022, 12:09
Your Time:

Stockbridge, NY Regional Weather

Expires:202208121200;;964468
ASUS41 KBGM 121110
RWRBGM

REGIONAL WEATHER ROUNDUP
NATIONAL WEATHER SERVICE BINGHAMTON NY
700 AM EDT FRI AUG 12 2022

Note: "fair" indicates few or no clouds below 12,000 feet with no
significant weather and/or obstructions to visibility.

* = Station(s) that does not report precipitation, such as rain, 
snow, etc, also no thunder or fog.


NYZ009-015>018-022>025-036-037-044>046-055>057-062-121200
...Central New York...
  
CITY           SKY/WX    TMP DP  RH WIND       PRES   REMARKS
Binghamton     CLEAR     56  50  80 N8        30.09R                  
Cortland       FAIR      50  48  93 CALM      30.12R                  
Dansville      CLEAR     52  50  93 SE3       30.15R                  
Elmira         CLEAR     54  53  97 W5        30.11R                  
Ithaca         CLEAR     54  50  86 NW5       30.12R                  
Hamilton       FAIR      50 N/A N/A CALM      30.11R                  
Hornell        FOG       46  46 100 CALM      30.19R VSB 1/4          
Monticello     CLEAR     59  56  89 NW5       30.06R                  
Norwich        CLOUDY    48  48 100 CALM      30.13R                  
Oneonta        CLEAR     55  52  88 CALM      30.10R                  
Penn Yan       CLEAR     59  50  72 CALM      30.13R                  
Rome           CLEAR     53  50  89 CALM      30.10R                  
Seneca Falls   SUNNY     55  52  88 NE3       30.13R                  
Sidney         FOG       54  54 100 CALM      30.10R VSB 1/4          
Skaneateles    FAIR      54  54 100 CALM      30.12R                  
Syracuse       PTCLDY    56  50  80 NW6       30.12R                  
$$
 

SKY/WX - Weather  TMP - Temperature  DP - Dew Point  RH - Humidity
WIND - Wind Direction/Speed PRES - Barometric Pressure VSB - Visibility
WCI - Wind Chill Index E13G22 Wind - East Wind 13 mph/Gusts of 22 mph

Trending Headlines

Stockbridge Radar Loop



Stockbridge Quick Facts


National Two Day Weather Forecast


E-mail the Stockbridge Weather Forecast

Voice your opinion or tell us about page issues...